Weather History for KTMB - January, 2013

Change the Weather History Date:

Friday, January 4, 2013

  Actual Average (KMIA) Record (KMIA)
Temperature  
Mean Temperature 70 °F 68 °F  
Max Temperature 81 °F 76 °F 87 °F (1942)
Min Temperature 60 °F 60 °F 32 °F (1918)
Degree Days  
Heating Degree Days 0 2  
Month to date heating degree days 8  
Since 1 July heating degree days 45  
Cooling Degree Days 6 5  
Month to date cooling degree days 20  
Year to date cooling degree days 20  
Growing Degree Days 20 (Base 50)    
Moisture  
Dew Point 66 °F    
Average Humidity 88    
Maximum Humidity 100    
Minimum Humidity 61    
Precipitation  
Precipitation 0.01 in 0.06 in 0.65 in (1969)
Month to date precipitation 0.21  
Year to date precipitation 0.21  
Snow  
Snow 0.00 in - - ()
Month to date snowfall  
Since 1 July snowfall  
Snow Depth -    
Sea Level Pressure  
Sea Level Pressure 30.15 in    
Wind  
Wind Speed 1 mph (ENE)    
Max Wind Speed 10 mph    
Max Gust Speed -    
Visibility 6 miles    
Events Fog , Tornado    
T = Trace of Precipitation, MM = Missing Value Source: NWS Daily Summary

Daily Weather History Graph

Daily Weather History Graph

Search for Another Location

Airport or City:

Trip Planner

Search our weather history database for the weather conditions in past years. The results will help you decide how hot, cold, wet, or windy it might be!

Date:

Astronomy

Jan. 04, 2013 Rise Set
Actual Time 7:08 AM EST 5:44 PM EST
Civil Twilight 6:43 AM EST 6:09 PM EST
Nautical Twilight 6:15 AM EST 6:38 PM EST
Astronomical Twilight 5:47 AM EST 7:06 PM EST
Moon No Moon Rise 11:36 AM EST (1/4)
Length of Visible Light 11h 25m
Length of Day
10h 35m
Waning Gibbous, 55% of the Moon is Illuminated
Jan 4
Waning Gibbous
Jan 4
Last Quarter
Jan 11
New
Jan 18
First Quarter
Jan 26
Full

Hourly Weather History & Observations

Time (EST) Temp. Heat Index Dew Point Humidity Pressure Visibility Wind Dir Wind Speed Gust Speed Precip Events Conditions
12:53 AM 69.1 °F - 66.0 °F 90% 30.12 in 10.0 mi Calm Calm - N/A   Clear
1:53 AM 66.9 °F - 66.0 °F 97% 30.12 in 10.0 mi Calm Calm - N/A   Clear
2:20 AM 62.6 °F - 62.6 °F 100% 30.12 in 2.0 mi Calm Calm - N/A   Partly Cloudy
2:23 AM 62.6 °F - 62.6 °F 100% 30.12 in 1.0 mi Calm Calm - N/A   Mist
2:30 AM 64.4 °F - 64.4 °F 100% 30.12 in 0.5 mi Calm Calm - N/A Fog Fog
2:53 AM 64.0 °F - 63.0 °F 96% 30.12 in 0.5 mi Calm Calm - N/A Fog Fog
3:06 AM 64.4 °F - 64.4 °F 100% 30.12 in 1.0 mi Calm Calm - N/A   Mist
3:14 AM 64.4 °F - 64.4 °F 100% 30.12 in 0.5 mi Calm Calm - N/A Fog Fog
3:53 AM 63.0 °F - 63.0 °F 100% 30.12 in 0.5 mi Calm Calm - 0.01 in Fog Fog
4:19 AM 64.4 °F - 64.4 °F 100% 30.12 in 1.5 mi Calm Calm - N/A   Scattered Clouds
4:25 AM 62.6 °F - 62.6 °F 100% 30.12 in 0.8 mi Calm Calm - N/A   Mist
4:33 AM 62.6 °F - 62.6 °F 100% 30.12 in 1.0 mi Calm Calm - N/A   Mist
4:44 AM 60.8 °F - 60.8 °F 100% 30.12 in 0.5 mi Calm Calm - N/A Fog Fog
4:53 AM 62.1 °F - 62.1 °F 100% 30.12 in 0.5 mi Calm Calm - N/A Fog Fog
5:06 AM 62.6 °F - 62.6 °F 100% 30.12 in 2.0 mi Calm Calm - N/A   Mostly Cloudy
5:14 AM 62.6 °F - 62.6 °F 100% 30.12 in 7.0 mi Calm Calm - N/A   Overcast
5:19 AM 62.6 °F - 60.8 °F 94% 30.12 in 1.5 mi Calm Calm - N/A   Overcast
5:25 AM 60.8 °F - 60.8 °F 100% 30.13 in 0.5 mi Calm Calm - N/A Fog Fog
5:36 AM 60.8 °F - 60.8 °F 100% 30.13 in 0.2 mi Calm Calm - N/A Fog Fog
5:53 AM 61.0 °F - 61.0 °F 100% 30.13 in 0.5 mi Calm Calm - N/A Fog Fog
6:53 AM 63.0 °F - 63.0 °F 100% 30.14 in 0.5 mi Calm Calm - N/A Fog Fog
7:00 AM 64.4 °F - 62.6 °F 94% 30.15 in 0.2 mi Calm Calm - N/A Fog Fog
7:40 AM 64.4 °F - 64.4 °F 100% 30.17 in 0.2 mi Calm Calm - N/A Fog Fog
7:46 AM 64.4 °F - 64.4 °F 100% 30.17 in 10.0 mi Calm Calm - N/A   Clear
7:53 AM 66.2 °F - 66.2 °F 100% 30.17 in 10.0 mi Calm Calm - N/A   Clear
8:53 AM 73.0 °F - 71.1 °F 93% 30.20 in 10.0 mi NNE 3.5 mph - N/A   Clear
9:53 AM 75.9 °F - 71.1 °F 85% 30.21 in 10.0 mi Calm Calm - N/A   Scattered Clouds
10:43 AM 80.6 °F 83.9 °F 69.8 °F 70% 30.20 in 10.0 mi Calm Calm - N/A   Mostly Cloudy
10:53 AM 79.0 °F - 69.1 °F 72% 30.20 in 10.0 mi Calm Calm - N/A   Mostly Cloudy
11:03 AM 78.8 °F - 68.0 °F 69% 30.20 in 10.0 mi Calm Calm - N/A   Scattered Clouds
11:53 AM 80.1 °F 82.1 °F 66.0 °F 62% 30.18 in 10.0 mi Calm Calm - N/A   Mostly Cloudy
12:49 PM 78.8 °F - 66.2 °F 65% 30.16 in 10.0 mi NNW 4.6 mph - N/A   Overcast
12:53 PM 80.1 °F 82.3 °F 66.9 °F 64% 30.16 in 10.0 mi NNW 3.5 mph - N/A   Overcast
1:00 PM 80.6 °F 83.2 °F 68.0 °F 65% 30.15 in 10.0 mi North 5.8 mph - N/A   Overcast
1:47 PM 80.6 °F 82.7 °F 66.2 °F 61% 30.14 in 10.0 mi Calm Calm - 0.00 in Tornado Funnel Cloud
1:51 PM 80.6 °F 82.7 °F 66.2 °F 61% 30.13 in 10.0 mi Calm Calm - 0.00 in   Overcast
1:53 PM 80.1 °F 82.3 °F 66.9 °F 64% 30.14 in 10.0 mi SE 3.5 mph - 0.00 in   Mostly Cloudy
2:53 PM 81.0 °F 83.3 °F 66.9 °F 62% 30.13 in 10.0 mi East 4.6 mph - 0.00 in   Mostly Cloudy
3:53 PM 80.1 °F 82.7 °F 68.0 °F 67% 30.14 in 10.0 mi East 10.4 mph - N/A   Partly Cloudy
4:53 PM 77.0 °F - 68.0 °F 74% 30.14 in 10.0 mi ESE 6.9 mph - N/A   Partly Cloudy
5:53 PM 75.0 °F - 69.1 °F 82% 30.16 in 10.0 mi ESE 5.8 mph - N/A   Clear
6:53 PM 73.9 °F - 70.0 °F 87% 30.19 in 10.0 mi East 3.5 mph - N/A   Overcast
7:53 PM 73.0 °F - 69.1 °F 87% 30.21 in 10.0 mi East 3.5 mph - N/A   Mostly Cloudy
8:53 PM 71.1 °F - 69.1 °F 93% 30.22 in 10.0 mi East 3.5 mph - N/A   Mostly Cloudy
9:53 PM 72.0 °F - 70.0 °F 93% 30.23 in 10.0 mi East 3.5 mph - N/A   Mostly Cloudy
10:53 PM 70.0 °F - 68.0 °F 93% 30.22 in 10.0 mi Calm Calm - N/A   Mostly Cloudy
11:53 PM 69.1 °F - 69.1 °F 100% 30.22 in 10.0 mi Calm Calm - N/A   Clear